Terminal Aerodrome Forecast
Issued by NWS Cleveland, OH

Home | Current Version | Previous Version | Text Only | Print | Product List | Glossary On
Versions: 1 2 3 4 5 6 7 8 9 10 11 12 13 14 15 16 17 18 19 20 21
000
FTUS41 KCLE 020300 AAB
TAFERI
TAF AMD
KERI 020316Z 0203/0224 08010KT 5SM BR SCT007
      TEMPO 0203/0207 3SM BR
     FM020700 16006KT P6SM FEW100 SCT250
     FM021700 23006KT P6SM FEW035 SCT200
     FM022100 16008KT P6SM SCT100 BKN200
     FM022300 13006KT P6SM BKN150=

USA.gov is the U.S. government's official web portal to all federal, state and local government web resources and services.